FW4559 Weather Reports


time (UTC)temp
C
wind
direction
speed
KPH
gust
KPH
rain 1hr
cm
rain 24hr
cm
rain mn
cm
humidity
%
barometer
mb
20200531082023 13 329 1.6 8.0 0.00 0.03 0.00 85 1016.1
20200531081029 13 321 1.6 9.7 0.00 0.03 0.00 85 1016.0
20200531080537 13 308 1.6 9.7 0.00 0.03 0.00 85 1015.9
20200531080111 13 328 3.2 9.7 0.00 0.03 0.00 85 1015.9
20200531075522 13 304 3.2 11.3 0.00 0.03 0.00 85 1015.9
20200531075047 13 318 3.2 11.3 0.00 0.03 0.00 85 1016.0
20200531074559 13 318 3.2 8.0 0.00 0.03 0.00 85 1015.8
20200531074022 13 326 0.0 6.4 0.00 0.03 0.00 85 1015.8
20200531073522 13 328 0.0 3.2 0.00 0.03 0.00 86 1015.8
20200531073022 13 352 0.0 6.4 0.00 0.03 0.00 86 1015.8
20200531072521 13 335 0.0 6.4 0.00 0.03 0.00 85 1015.9
20200531072020 13 341 1.6 8.0 0.00 0.03 0.00 85 1015.9
20200531071541 13 335 0.0 11.3 0.00 0.03 0.00 85 1015.9
20200531071022 14 305 3.2 11.3 0.00 0.03 0.00 85 1016.0
20200531070539 14 322 0.0 12.9 0.00 0.03 0.00 84 1016.0
20200531070039 14 340 0.0 12.9 0.00 0.03 0.00 84 1016.0
20200531065518 14 309 4.8 11.3 0.00 0.03 0.00 84 1016.1
20200531065018 14 317 3.2 11.3 0.00 0.03 0.00 84 1016.1
20200531064519 14 335 3.2 6.4 0.00 0.03 0.00 85 1016.1
20200531064017 13 321 0.0 4.8 0.00 0.03 0.00 86 1016.1
20200531063517 13 330 0.0 6.4 0.00 0.03 0.00 87 1016.2
20200531063044 13 332 0.0 6.4 0.00 0.03 0.00 87 1016.1
20200531062516 13 342 0.0 0.0 0.00 0.03 0.00 87 1016.2
20200531062016 13 331 0.0 0.0 0.00 0.03 0.00 87 1016.2
20200531061526 13 333 0.0 0.0 0.00 0.03 0.00 87 1016.1
20200531061016 13 333 0.0 0.0 0.00 0.03 0.00 86 1016.1
20200531060515 13 306 0.0 0.0 0.00 0.03 0.00 86 1016.1
20200531060051 13 293 0.0 6.4 0.00 0.03 0.00 85 1016.1
20200531055521 13 316 1.6 6.4 0.00 0.03 0.00 85 1016.1
20200531055022 13 303 1.6 9.7 0.00 0.03 0.00 84 1016.1
20200531054517 14 331 1.6 9.7 0.00 0.03 0.00 84 1016.0
20200531054017 13 343 0.0 9.7 0.00 0.03 0.00 85 1016.0
20200531053514 13 311 1.6 8.0 0.00 0.03 0.00 85 1016.1
20200531053024 13 319 0.0 3.2 0.00 0.03 0.00 86 1016.0
20200531052512 13 319 1.6 3.2 0.00 0.03 0.00 86 1016.1
20200531052030 13 332 0.0 4.8 0.00 0.03 0.00 86 1016.2
20200531051513 13 317 0.0 0.0 0.00 0.03 0.00 86 1016.3
20200531051011 13 309 0.0 0.0 0.00 0.03 0.00 86 1016.1
20200531050511 13 297 0.0 0.0 0.00 0.03 0.00 86 1016.2
20200531050017 13 258 0.0 0.0 0.00 0.03 0.00 85 1016.1
20200531045511 13 258 0.0 0.0 0.00 0.03 0.00 84 1016.1
20200531045009 13 250 0.0 0.0 0.00 0.03 0.00 83 1016.1
20200531044510 14 323 0.0 0.0 0.00 0.03 0.00 82 1016.2
20200531044010 14 298 0.0 0.0 0.00 0.03 0.00 82 1016.2
20200531043510 14 329 0.0 0.0 0.00 0.03 0.00 82 1016.2
20200531043006 13 328 0.0 0.0 0.00 0.03 0.00 82 1016.1
20200531042505 13 311 0.0 0.0 0.00 0.03 0.00 82 1016.2
20200531042004 13 288 0.0 0.0 0.00 0.03 0.00 83 1016.2
20200531041510 13 277 0.0 0.0 0.00 0.03 0.00 83 1016.2
20200531041007 13 277 0.0 0.0 0.00 0.03 0.00 82 1016.2
20200531040506 14 251 0.0 0.0 0.00 0.03 0.00 81 1016.2
20200531040002 14 278 0.0 0.0 0.00 0.03 0.00 81 1016.3
20200531035503 14 321 0.0 1.6 0.00 0.03 0.03 81 1016.3
20200531035103 13 319 0.0 3.2 0.00 0.03 0.03 82 1016.2
20200531034603 13 309 0.0 3.2 0.00 0.03 0.03 82 1016.2
20200531034102 13 321 0.0 0.0 0.00 0.03 0.03 81 1016.2
20200531033611 14 321 0.0 0.0 0.00 0.03 0.03 81 1016.0
20200531033149 14 320 0.0 0.0 0.00 0.03 0.03 80 1016.0
20200531032607 14 334 0.0 4.8 0.00 0.03 0.03 79 1016.0
20200531032133 14 334 0.0 4.8 0.00 0.03 0.03 79 1016.0
20200531031736 14 323 0.0 3.2 0.00 0.03 0.03 79 1016.0
20200531031059 14 241 0.0 3.2 0.00 0.03 0.03 79 1016.1
20200531030604 15 319 0.0 1.6 0.00 0.03 0.03 78 1016.0
20200531030132 15 320 0.0 1.6 0.00 0.03 0.03 77 1016.1
20200531025558 15 322 0.0 0.0 0.00 0.13 0.03 77 1016.0
20200531025059 15 264 0.0 0.0 0.00 0.13 0.03 76 1016.1
20200531024638 15 328 0.0 0.0 0.00 0.13 0.03 76 1016.0
20200531024058 15 300 0.0 0.0 0.00 0.13 0.03 75 1015.9
20200531023558 15 321 0.0 0.0 0.00 0.13 0.03 74 1015.9
20200531023138 15 321 0.0 0.0 0.00 0.13 0.03 72 1015.8
20200531022557 16 326 0.0 3.2 0.00 0.13 0.03 71 1015.8
20200531022057 16 326 0.0 1.6 0.00 0.13 0.03 71 1015.8
20200531021721 16 326 0.0 3.2 0.00 0.13 0.03 70 1015.6
20200531021057 16 326 0.0 3.2 0.00 0.13 0.03 70 1015.7
20200531020603 16 327 0.0 6.4 0.00 0.13 0.03 69 1015.6
20200531020116 16 330 0.0 4.8 0.00 0.13 0.03 69 1015.7
20200531015644 16 349 0.0 3.2 0.00 0.33 0.03 70 1015.7
20200531015056 16 6 0.0 3.2 0.00 0.33 0.03 70 1015.7
20200531014647 16 356 0.0 1.6 0.00 0.33 0.03 70 1015.7
20200531014105 16 356 0.0 1.6 0.00 0.33 0.03 70 1015.5
20200531013556 16 356 0.0 0.0 0.00 0.33 0.03 69 1015.4
20200531013116 16 356 0.0 0.0 0.00 0.33 0.03 67 1015.4
20200531012603 17 356 0.0 1.6 0.00 0.33 0.03 66 1015.4
20200531012056 17 356 0.0 1.6 0.00 0.33 0.03 65 1015.3
20200531011629 17 355 0.0 1.6 0.00 0.33 0.03 64 1015.3
20200531011109 17 356 0.0 8.0 0.00 0.33 0.03 64 1015.3
20200531010555 17 356 0.0 8.0 0.00 0.33 0.03 61 1015.2
20200531010206 18 326 0.0 9.7 0.00 0.33 0.03 61 1015.2
20200531005554 18 313 3.2 9.7 0.00 0.33 0.03 60 1015.1
20200531005057 18 324 1.6 9.7 0.00 0.33 0.03 59 1015.1
20200531004638 18 239 1.6 17.7 0.00 0.33 0.03 59 1015.1
20200531004106 18 288 3.2 17.7 0.00 0.33 0.03 58 1015.0
20200531003554 18 359 8.0 22.5 0.00 0.33 0.03 57 1014.9
20200531003129 18 330 8.0 22.5 0.00 0.33 0.03 57 1014.9
20200531002558 18 20 8.0 20.9 0.00 0.33 0.03 57 1014.9
20200531002053 18 15 8.0 20.9 0.00 0.33 0.03 57 1015.0
20200531001727 18 328 6.4 19.3 0.00 0.33 0.03 57 1015.0
20200531001105 18 298 8.0 19.3 0.00 0.33 0.03 56 1014.9
20200531000600 19 332 6.4 16.1 0.00 0.33 0.03 56 1014.9
20200531000217 19 329 3.2 12.9 0.00 0.33 0.03 56 1014.9
20200530235553 19 338 8.0 14.5 0.00 0.33 0.03 56 1014.9
20200530235114 19 329 6.4 12.9 0.00 0.33 0.03 56 1014.9
20200530234716 19 318 4.8 16.1 0.00 0.33 0.03 55 1014.7
20200530234052 20 338 4.8 12.9 0.00 0.33 0.03 54 1014.7
20200530233559 20 305 4.8 17.7 0.00 0.33 0.03 54 1014.7
20200530233303 20 329 6.4 17.7 0.00 0.33 0.03 53 1014.5
20200530232551 20 333 4.8 9.7 0.00 0.33 0.03 53 1014.5
20200530232050 20 332 4.8 17.7 0.00 0.33 0.03 53 1014.5
20200530231628 20 4 6.4 17.7 0.00 0.33 0.03 52 1014.4
20200530231051 20 282 3.2 12.9 0.00 0.33 0.03 53 1014.4
20200530230554 20 289 1.6 11.3 0.00 0.33 0.03 54 1014.4
20200530230118 20 333 3.2 20.9 0.00 0.33 0.03 52 1014.4
20200530225608 21 326 4.8 14.5 0.00 0.33 0.03 52 1014.2
20200530225050 21 331 8.0 17.7 0.00 0.33 0.03 50 1014.2
20200530224616 21 345 3.2 20.9 0.00 0.33 0.03 51 1014.2
20200530224100 21 316 4.8 25.7 0.00 0.33 0.03 51 1014.1
20200530223600 21 349 11.3 25.7 0.00 0.33 0.03 50 1014.0
20200530223144 21 299 6.4 20.9 0.00 0.33 0.03 51 1014.1
20200530222602 21 324 6.4 20.9 0.00 0.33 0.03 50 1013.9
20200530222059 21 335 11.3 25.7 0.00 0.33 0.03 50 1013.9
20200530221611 21 236 11.3 25.7 0.00 0.33 0.03 49 1014.0
20200530221048 22 302 3.2 19.3 0.00 0.33 0.03 51 1013.9
20200530220611 22 333 0.0 19.3 0.00 0.33 0.03 50 1014.0
20200530220056 22 20 4.8 16.1 0.00 0.33 0.03 51 1014.0
20200530215547 22 65 8.0 17.7 0.00 0.41 0.03 51 1014.0
20200530215055 22 189 8.0 24.1 0.00 0.41 0.03 49 1014.0
20200530214643 22 346 8.0 14.5 0.00 0.41 0.03 49 1014.0
20200530214057 22 288 6.4 17.7 0.00 0.41 0.03 50 1014.1
20200530213550 22 311 8.0 17.7 0.00 0.41 0.03 49 1014.1
20200530213111 22 323 8.0 22.5 0.00 0.41 0.03 50 1014.2
20200530212545 22 276 9.7 22.5 0.00 0.41 0.03 48 1014.1
20200530212045 22 334 6.4 22.5 0.00 0.41 0.03 49 1014.1
20200530211630 22 299 6.4 16.1 0.00 0.41 0.03 49 1014.0
20200530211044 23 143 0.0 20.9 0.00 0.41 0.03 50 1014.1
20200530210551 22 281 3.2 20.9 0.00 0.41 0.03 50 1014.0
20200530210145 22 234 6.4 19.3 0.00 0.41 0.03 50 1014.0
20200530205548 22 311 4.8 19.3 0.00 0.53 0.03 51 1014.0
20200530205048 22 300 6.4 14.5 0.00 0.53 0.03 50 1013.9
20200530204630 22 23 6.4 20.9 0.00 0.53 0.03 48 1013.9
20200530204047 22 356 11.3 22.5 0.00 0.53 0.03 48 1013.9
20200530203545 22 233 8.0 22.5 0.00 0.53 0.03 49 1013.9
20200530203042 23 339 6.4 17.7 0.00 0.53 0.03 50 1014.0
20200530202602 23 315 3.2 14.5 0.00 0.53 0.03 52 1013.8
20200530202042 22 307 4.8 24.1 0.00 0.53 0.03 48 1013.8
20200530201619 23 4 11.3 24.1 0.00 0.53 0.03 47 1014.0
20200530201041 23 331 8.0 20.9 0.00 0.53 0.03 47 1013.9
20200530200540 23 315 6.4 20.9 0.00 0.53 0.03 49 1013.9
20200530200100 23 296 4.8 17.7 0.00 0.53 0.03 48 1013.9
20200530195043 23 316 4.8 20.9 0.00 0.58 0.03 46 1014.0
20200530194542 23 286 4.8 20.9 0.00 0.58 0.03 48 1013.9
20200530194105 24 199 3.2 9.7 0.00 0.58 0.03 45 1014.0
20200530193539 23 215 3.2 16.1 0.00 0.58 0.03 45 1013.9
20200530193141 23 253 3.2 17.7 0.00 0.58 0.03 45 1013.9
20200530192539 23 134 1.6 19.3 0.00 0.58 0.03 48 1014.0
20200530192039 24 314 6.4 19.3 0.00 0.58 0.03 47 1014.0
20200530191602 24 198 1.6 16.1 0.00 0.58 0.03 46 1013.9
20200530191039 24 222 6.4 19.3 0.00 0.58 0.03 48 1014.0
20200530190538 24 225 4.8 16.1 0.00 0.58 0.03 46 1014.1
20200530190100 23 205 4.8 16.1 0.00 0.58 0.03 49 1014.2
20200530185534 23 349 3.2 20.9 0.00 0.58 0.03 50 1014.1
20200530185034 23 345 8.0 20.9 0.00 0.58 0.03 46 1014.2
20200530184539 24 246 3.2 16.1 0.00 0.58 0.03 44 1014.3
20200530184034 24 297 3.2 16.1 0.00 0.58 0.03 44 1014.3
20200530183538 24 208 1.6 12.9 0.00 0.58 0.03 46 1014.3
20200530183057 25 343 4.8 12.9 0.00 0.58 0.03 43 1014.4
20200530182532 25 258 3.2 17.7 0.00 0.58 0.03 47 1014.4
20200530182030 24 160 4.8 17.7 0.00 0.58 0.03 47 1014.4
20200530181540 24 297 4.8 17.7 0.00 0.58 0.03 44 1014.5
20200530181028 23 173 4.8 17.7 0.00 0.58 0.03 49 1014.5
20200530180533 23 328 3.2 12.9 0.00 0.58 0.03 50 1014.5
20200530180028 23 295 3.2 12.9 0.00 0.58 0.03 51 1014.5
20200530175539 23 217 0.0 14.5 0.00 0.58 0.03 53 1014.6
20200530175031 23 341 4.8 14.5 0.00 0.58 0.03 52 1014.6
20200530174539 23 206 1.6 11.3 0.00 0.58 0.03 54 1014.6
20200530174026 22 8 3.2 12.9 0.00 0.58 0.03 58 1014.8
20200530173525 22 342 6.4 20.9 0.00 0.58 0.03 57 1014.8
20200530173036 22 326 6.4 20.9 0.00 0.58 0.03 58 1014.9
20200530172525 22 300 4.8 12.9 0.00 0.58 0.03 56 1014.8
20200530172031 22 15 1.6 16.1 0.00 0.58 0.03 55 1014.9
20200530171629 22 336 8.0 16.1 0.00 0.58 0.03 52 1014.8
20200530171039 23 307 4.8 12.9 0.00 0.58 0.03 51 1014.8
20200530170523 24 127 0.0 8.0 0.00 0.58 0.03 52 1014.7
20200530170033 23 92 3.2 8.0 0.00 0.58 0.03 53 1014.8
20200530165521 22 254 0.0 8.0 0.00 0.58 0.03 55 1014.8
20200530165030 22 220 0.0 8.0 0.00 0.58 0.03 56 1014.8
20200530164541 22 262 1.6 17.7 0.00 0.58 0.03 57 1014.8
20200530164021 21 294 8.0 17.7 0.00 0.58 0.03 56 1014.8
20200530163520 22 347 9.7 17.7 0.00 0.58 0.03 55 1014.8
20200530163040 22 34 0.0 6.4 0.00 0.58 0.03 56 1014.9
20200530162520 23 226 0.0 9.7 0.00 0.58 0.03 55 1015.0
20200530162022 23 350 1.6 9.7 0.00 0.58 0.03 56 1015.1
20200530161556 23 331 1.6 11.3 0.00 0.58 0.03 54 1015.0
20200530161024 22 201 1.6 17.7 0.00 0.58 0.03 57 1015.1
20200530160523 22 238 3.2 20.9 0.00 0.58 0.03 55 1015.1
20200530160029 22 195 1.6 9.7 0.00 0.58 0.03 58 1015.2
20200530155518 22 359 4.8 16.1 0.00 0.64 0.03 55 1015.0
20200530155019 22 352 4.8 16.1 0.00 0.64 0.03 58 1015.2
20200530154536 22 269 3.2 14.5 0.00 0.64 0.03 56 1015.2
20200530154018 22 306 3.2 14.5 0.00 0.64 0.03 55 1015.2
20200530153549 23 340 3.2 12.9 0.00 0.64 0.03 53 1015.2
20200530153024 23 319 3.2 16.1 0.00 0.64 0.03 55 1015.3
20200530152516 23 332 4.8 16.1 0.00 0.64 0.03 54 1015.3
20200530152016 22 220 0.0 14.5 0.00 0.64 0.03 56 1015.3
20200530151525 22 319 4.8 14.5 0.00 0.64 0.03 57 1015.3
20200530151033 22 322 3.2 9.7 0.00 0.64 0.03 59 1015.3
20200530150515 22 279 1.6 6.4 0.00 0.64 0.03 60 1015.4
20200530150028 22 134 1.6 9.7 0.00 0.64 0.03 59 1015.4
20200530145514 22 301 0.0 12.9 0.00 0.64 0.03 63 1015.5
20200530145020 21 240 0.0 4.8 0.00 0.64 0.03 65 1015.5
20200530144517 21 43 0.0 6.4 0.00 0.64 0.03 68 1015.6
20200530144013 21 336 3.2 6.4 0.00 0.64 0.03 67 1015.5
20200530143514 21 133 0.0 0.0 0.00 0.64 0.03 65 1015.5
20200530143014 22 257 0.0 0.0 0.00 0.64 0.03 63 1015.6
20200530142514 22 333 0.0 0.0 0.00 0.64 0.03 63 1015.6
20200530142032 23 231 0.0 0.0 0.00 0.64 0.03 62 1015.7
20200530141016 23 243 0.0 0.0 0.00 0.64 0.03 62 1015.6
20200530140511 23 222 0.0 0.0 0.00 0.64 0.03 62 1015.6
20200530140016 23 250 0.0 0.0 0.00 0.64 0.03 66 1015.6
20200530135508 22 249 0.0 0.0 0.00 0.64 0.03 67 1015.7
20200530135006 22 293 0.0 6.4 0.00 0.64 0.03 69 1015.8
20200530134508 21 238 1.6 6.4 0.00 0.64 0.03 70 1015.8
20200530134006 21 235 0.0 6.4 0.00 0.64 0.03 70 1015.9
20200530133506 21 269 0.0 4.8 0.00 0.64 0.03 71 1016.0
20200530133004 21 240 0.0 3.2 0.00 0.64 0.03 74 1016.1
20200530132502 20 258 0.0 8.0 0.00 0.64 0.03 75 1016.1
20200530132003 20 266 1.6 8.0 0.00 0.64 0.03 76 1016.0
20200530131509 20 223 1.6 8.0 0.00 0.64 0.03 76 1016.1
20200530131106 20 240 0.0 6.4 0.00 0.64 0.03 79 1016.0
20200530130602 20 329 1.6 6.4 0.00 0.64 0.03 79 1016.1
20200530130140 20 238 0.0 4.8 0.00 0.64 0.03 77 1016.0
20200530125559 20 273 0.0 4.8 0.00 0.64 0.03 77 1016.1
20200530125058 20 220 0.0 4.8 0.00 0.64 0.03 79 1016.0
20200530124617 20 218 0.0 4.8 0.00 0.64 0.03 81 1016.1
20200530124109 19 206 0.0 4.8 0.00 0.64 0.03 83 1015.9
20200530123554 18 333 0.0 4.8 0.00 0.64 0.03 85 1016.0
20200530123102 18 254 0.0 1.6 0.00 0.64 0.03 87 1016.0
20200530122605 17 339 0.0 3.2 0.00 0.64 0.03 88 1016.0
20200530122056 17 339 0.0 6.4 0.00 0.64 0.03 88 1015.9
20200530121707 17 245 0.0 6.4 0.00 0.64 0.03 88 1016.0
20200530121054 17 341 1.6 4.8 0.00 0.64 0.03 87 1016.0
20200530120550 17 328 0.0 4.8 0.00 0.64 0.03 88 1016.0
20200530120121 17 341 0.0 0.0 0.00 0.64 0.03 92 1015.8
20200530115547 17 341 0.0 0.0 0.00 0.64 0.03 93 1015.7
20200530115058 16 341 0.0 0.0 0.00 0.64 0.03 92 1015.7
20200530114609 16 341 0.0 0.0 0.00 0.64 0.03 93 1015.7
20200530114111 16 341 0.0 0.0 0.00 0.64 0.03 92 1015.6
20200530113620 15 341 0.0 0.0 0.00 0.64 0.03 91 1015.7
20200530113054 15 341 0.0 0.0 0.00 0.64 0.03 90 1015.7
20200530112544 15 341 0.0 0.0 0.00 0.64 0.03 89 1015.8
20200530112043 15 341 0.0 0.0 0.00 0.64 0.03 89 1015.8
20200530111046 15 341 0.0 0.0 0.00 0.64 0.03 88 1015.9
20200530110542 14 342 0.0 0.0 0.00 0.64 0.03 88 1015.8
20200530110136 14 342 0.0 0.0 0.00 0.64 0.03 88 1015.8
20200530105547 14 347 0.0 0.0 0.00 0.64 0.03 88 1015.9
20200530105043 14 334 0.0 0.0 0.00 0.64 0.03 88 1015.8
20200530104612 14 351 0.0 0.0 0.00 0.64 0.03 88 1015.9
20200530104051 14 4 0.0 0.0 0.00 0.64 0.03 88 1015.8
20200530103551 14 4 0.0 0.0 0.00 0.64 0.03 88 1015.8
20200530103046 13 4 0.0 0.0 0.00 0.64 0.03 88 1015.9
20200530102540 13 4 0.0 0.0 0.00 0.64 0.03 88 1015.8
20200530102041 13 354 0.0 0.0 0.00 0.64 0.03 88 1015.7
20200530101602 13 132 0.0 0.0 0.00 0.64 0.03 89 1015.9
20200530101044 13 132 0.0 0.0 0.00 0.64 0.03 89 1015.7
20200530100539 14 132 0.0 0.0 0.00 0.64 0.03 88 1015.5
20200530100058 14 131 0.0 0.0 0.00 0.64 0.03 88 1015.5
20200530095542 14 131 0.0 0.0 0.00 0.64 0.03 88 1015.3
20200530095039 14 131 0.0 0.0 0.00 0.64 0.03 88 1015.4
20200530094611 14 98 0.0 0.0 0.00 0.64 0.03 88 1015.3
20200530094040 14 124 0.0 0.0 0.00 0.64 0.03 88 1015.3
20200530093541 14 98 0.0 0.0 0.00 0.64 0.03 88 1015.1
20200530093116 14 97 0.0 0.0 0.00 0.64 0.03 88 1015.2
20200530092540 14 97 0.0 0.0 0.00 0.64 0.03 88 1015.2
20200530092038 13 97 0.0 0.0 0.00 0.64 0.03 88 1015.1
20200530091037 13 97 0.0 0.0 0.00 0.64 0.03 88 1015.0
20200530090547 13 93 0.0 0.0 0.03 0.64 0.03 88 1014.8
20200530090123 13 92 0.0 0.0 0.03 0.64 0.03 88 1014.7
20200530085539 13 342 0.0 0.0 0.03 0.64 0.03 88 1014.8
20200530085041 13 342 0.0 0.0 0.03 0.64 0.03 89 1014.8
20200530084607 13 342 0.0 0.0 0.03 0.64 0.03 89 1014.7
20200530084034 14 342 0.0 0.0 0.03 0.64 0.03 88 1014.7
20200530083533 14 342 0.0 4.8 0.03 0.64 0.03 88 1014.7
20200530083100 14 342 0.0 4.8 0.03 0.64 0.03 87 1014.8
20200530082541 14 337 0.0 3.2 0.03 0.64 0.03 88 1014.8